This is the latest recevied weather packets stored in our database for station/object KN6DHD. If no packets are shown the sender has not sent any weather packets the latest 10 day(s).
| Time | Temp. | Humidity | Pressure | Rain* | Wind** | Luminosity | Snow |
|---|---|---|---|---|---|---|---|
| 1777662028 | 22.78° C | 64% | 1014.5 hPa | 0 mm | - | 609 W/m² | - |
| 1777661725 | 22.78° C | 63% | 1014.6 hPa | 0 mm | - | 593 W/m² | - |
| 1777661421 | 22.78° C | 64% | 1014.5 hPa | 0 mm | - | 588 W/m² | - |
| 1777661117 | 22.22° C | 65% | 1014.4 hPa | 0 mm | - | 626 W/m² | - |
| 1777660812 | 21.67° C | 66% | 1014.7 hPa | 0 mm | - | 90 W/m² | - |
| 1777660510 | 21.67° C | 66% | 1014.9 hPa | 0 mm | - | 77 W/m² | - |
| 1777660206 | 21.67° C | 67% | 1014.8 hPa | 0 mm | - | 74 W/m² | - |
| 1777659903 | 21.11° C | 66% | 1014.5 hPa | 0 mm | - | 72 W/m² | - |
| 1777659599 | 21.11° C | 67% | 1014.8 hPa | 0 mm | - | 78 W/m² | - |
| 1777659297 | 20.56° C | 70% | 1014.8 hPa | 0 mm | - | 78 W/m² | - |
| 1777658994 | 20.56° C | 69% | 1014.9 hPa | 0 mm | - | 78 W/m² | - |
| 1777658691 | 20.56° C | 68% | 1014.8 hPa | 0 mm | - | 75 W/m² | - |
| 1777658386 | 20° C | 71% | 1014.8 hPa | 0 mm | - | 75 W/m² | - |
| 1777658084 | 20° C | 71% | 1014.9 hPa | 0 mm | - | 75 W/m² | - |
| 1777657780 | 20° C | 70% | 1014.7 hPa | 0 mm | - | 76 W/m² | - |
| 1777657478 | 20° C | 72% | 1015 hPa | 0 mm | - | 78 W/m² | - |
| 1777657176 | 19.44° C | 72% | 1014.8 hPa | 0 mm | - | 81 W/m² | - |
| 1777656873 | 19.44° C | 72% | 1014.7 hPa | 0 mm | - | 81 W/m² | - |
| 1777656568 | 18.89° C | 72% | 1014.7 hPa | 0 mm | - | 80 W/m² | - |
| 1777656265 | 18.89° C | 74% | 1014.8 hPa | 0 mm | - | 87 W/m² | - |
| 1777655960 | 18.89° C | 74% | 1014.8 hPa | 0 mm | - | 75 W/m² | - |
| 1777655656 | 18.89° C | 75% | 1014.8 hPa | 0 mm | - | 72 W/m² | - |
| 1777655353 | 18.33° C | 75% | 1014.9 hPa | 0 mm | - | 69 W/m² | - |
| 1777655050 | 17.78° C | 77% | 1014.8 hPa | 0 mm | - | 67 W/m² | - |
| 1777654748 | 17.78° C | 77% | 1014.9 hPa | 0 mm | - | 65 W/m² | - |
* Rain latest hour (hover to see other rain measurements)
** Current wind speed in m/s (hover to see current wind gust speed)